Terminal Aerodrome Forecast
Issued by NWS

Home | Current Version | Previous Version | Text Only | Print | Product List | Glossary On
Versions: 1 2 3 4 5 6 7 8 9 10 11 12 13 14 15 16 17 18 19 20 21 22 23 24 25
000
FTUS46 KSGX 270538
TAFSAN
TAF
KSAN 270538Z 2706/2812 VRB04KT P6SM SCT025
     FM270800 VRB04KT P6SM BKN025
     FM271000 18008KT P6SM -SHRA BKN015 OVC035
     FM271900 19011KT P6SM -SHRA BKN015 OVC030
     FM280200 27008KT P6SM -SHRA BKN015 OVC030
     FM280500 27006KT P6SM VCSH SCT015 BKN030=

USA.gov is the U.S. government's official web portal to all federal, state and local government web resources and services.